Вернуться в каталог

STARLINK-4753

АктивенСвязьVLEO
NORAD 53845·PAYLOAD·🇺🇸 United States

Запущен Sep 19, 2022 с Cape Canaveral Space Force Station

Loading…

Ближайшие Пролёты (ближайшие 24 часа)

TLE

СвежийSource: CelesTrak SupGP

Эпоха: Sep 15, 2026, 02:32 UTC

1 53845C 22114AD  26258.10604167  .00262290  00000+0  14786-1 0  2588
2 53845  53.1595 163.1002 0001359  82.7911  84.9176 15.12555880    10

Отслеживайте STARLINK-4753 в реальном времени с AllMySat

Download on the App Store